{"data":{"norad_id":65804,"epoch":"2026-05-25T02:15:22.820832Z","epoch_age_seconds":66331,"freshness":"FRESH","line1":"1 65804U 25218P   26145.09401413  .00003254  00000+0  22945-3 0  9999","line2":"2 65804  97.4529   7.8443 0002590  81.3453 278.8068 15.05657319 36467","mean_motion":15.05657319,"eccentricity":0.000259,"inclination_deg":97.4529,"raan_deg":7.8443,"arg_perigee_deg":81.3453,"mean_anomaly_deg":278.8068,"bstar":0.00022945,"rev_number":3646,"period_min":95.639292010774,"perigee_km":547.69444876588,"apogee_km":551.28295888046,"semimajor_km":6927.6257038232,"source":"CELESTRAK","updated_at":"2026-05-25T13:38:20.938731Z"}}